Terminal Aerodrome Forecast
Issued by NWS Raleigh/Durham, NC

Home | Current Version | Previous Version | Text Only | Print | Product List | Glossary On
Versions: 1 2 3 4 5 6 7 8 9 10 11 12 13 14 15 16 17 18 19 20 21 22 23 24 25 26 27 28 29 30 31 32 33 34 35 36 37 38 39 40
190
FTUS42 KRAH 121141
TAFRDU
TAF
KRDU 121141Z 1212/1312 08007KT P6SM OVC080
     FM121500 09006KT P6SM SCT025 OVC050
      TEMPO 1215/1219 P6SM -SNPL BKN035
     FM122300 22005KT P6SM SCT050
     FM130700 31009KT P6SM FEW050=

USA.gov is the U.S. government's official web portal to all federal, state and local government web resources and services.